Location: Chervonnoye
(48.6000°N, 34.4000°E)
Time: 20:20:46
(UTC+00:00)

RS-44 - Pass Details

Date: 30 November 2021
Orbit: 1175 x 1510 km, 82.5° (Epoch: 19 January)

Event Time Altitude Azimuth Distance (km) Brightness Sun altitude
Rises 18:27:20 0° 209° (SSW) 4,138 ? -44.8°
Enters shadow 18:28:18 - 211° (SSW) 3,798 ? -45.0°
Exits shadow 18:45:59 - 6° (N) 3,787 ? -47.7°
Sets 18:46:51 0° 8° (N) 4,089 ? -47.8°
